TAM8072 SBGR-LIMC

Flight info

Callsign TAM8072
Flight time N/A
Altitude 33000
Route VUMEV UZ14 AMBET UN857 NEURA/N0492F350 UN857 GUNET N857 DEREV/N0476F360 N857 LZR N871 KORAL UG5 SONSO DCT ADUBI N871 VJF N851 MGA/N0471F380 M985 BCN N870 DIBER DCT STP Y15 PIGOS DCT NOSTA DCT ASTIG
Aircraft B77W/H-SDE1E2E3FGHIJ2J3J4J5M1RWXY/LB1D1

Departure

Time 2026-05-05 08:47
Airport São Paulo/Guarulhos–Governor André Franco Montoro International Airport (SBGR)

Arrival

Time N/A
Airport Milan Malpensa International Airport (LIMC)
Time Latitude Longitude Altitude Speed Heading
2026-05-05 08:27 -23.42695 -46.47472 2477 ft 0 kts 71°
2026-05-05 08:40 -23.42699 -46.47476 2477 ft 4 kts 112°
2026-05-05 08:40 -23.42701 -46.47500 2477 ft 4 kts 70°
2026-05-05 08:40 -23.42700 -46.47520 2477 ft 4 kts 121°
2026-05-05 08:41 -23.42682 -46.47536 2477 ft 4 kts 172°
2026-05-05 08:41 -23.42662 -46.47539 2477 ft 1 kts 163°
2026-05-05 08:41 -23.42659 -46.47540 2477 ft 0 kts 163°
2026-05-05 08:43 -23.42682 -46.47533 2477 ft 8 kts 164°
2026-05-05 08:43 -23.42739 -46.47515 2477 ft 12 kts 165°
2026-05-05 08:43 -23.42860 -46.47493 2477 ft 21 kts 160°
2026-05-05 08:44 -23.42989 -46.47450 2477 ft 8 kts 182°
2026-05-05 08:44 -23.43023 -46.47494 2477 ft 8 kts 246°
2026-05-05 08:44 -23.43059 -46.47611 2477 ft 23 kts 253°
2026-05-05 08:44 -23.43104 -46.47779 2477 ft 23 kts 253°
2026-05-05 08:45 -23.43155 -46.47969 2478 ft 26 kts 253°
2026-05-05 08:45 -23.43208 -46.48162 2479 ft 27 kts 254°
2026-05-05 08:45 -23.43280 -46.48339 2479 ft 21 kts 217°
2026-05-05 08:45 -23.43368 -46.48342 2479 ft 15 kts 166°
2026-05-05 08:46 -23.43415 -46.48296 2478 ft 4 kts 84°
2026-05-05 08:46 -23.43410 -46.48269 2478 ft 0 kts 76°
2026-05-05 08:46 -23.43407 -46.48255 2478 ft 8 kts 75°
2026-05-05 08:46 -23.43332 -46.47974 2479 ft 74 kts 74°
2026-05-05 08:47 -23.43121 -46.47195 2478 ft 139 kts 74°
2026-05-05 08:47 -23.42796 -46.45986 2476 ft 190 kts 73°
2026-05-05 08:47 -23.42426 -46.44609 2898 ft 194 kts 72°
2026-05-05 08:47 -23.42018 -46.43175 3336 ft 203 kts 71°
2026-05-05 08:48 -23.41585 -46.41685 3809 ft 208 kts 70°
2026-05-05 08:48 -23.41137 -46.40172 4227 ft 218 kts 70°
2026-05-05 08:48 -23.40644 -46.38526 4345 ft 240 kts 70°
2026-05-05 08:48 -23.40101 -46.36716 4531 ft 261 kts 70°
2026-05-05 08:49 -23.39328 -46.34890 4921 ft 270 kts 57°
2026-05-05 08:49 -23.38298 -46.33148 5487 ft 277 kts 55°
2026-05-05 08:49 -23.37229 -46.31388 6124 ft 281 kts 56°
2026-05-05 08:49 -23.36165 -46.29609 6750 ft 285 kts 57°
2026-05-05 08:50 -23.35088 -46.27780 7363 ft 288 kts 57°
2026-05-05 08:50 -23.34008 -46.25932 8012 ft 291 kts 57°
2026-05-05 08:50 -23.32918 -46.24062 8645 ft 293 kts 57°
2026-05-05 08:50 -23.31821 -46.22175 9276 ft 297 kts 58°
2026-05-05 08:51 -23.30713 -46.20268 9921 ft 300 kts 58°
2026-05-05 08:51 -23.29605 -46.18359 10456 ft 304 kts 58°
2026-05-05 08:51 -23.28441 -46.16355 10683 ft 324 kts 58°
2026-05-05 08:51 -23.27198 -46.14213 10860 ft 344 kts 58°
2026-05-05 08:52 -23.25883 -46.11947 11021 ft 365 kts 58°
2026-05-05 08:52 -23.24488 -46.09546 11304 ft 382 kts 58°
2026-05-05 08:52 -23.23052 -46.07076 11802 ft 391 kts 58°
2026-05-05 08:52 -23.21419 -46.04710 12268 ft 396 kts 43°
2026-05-05 08:53 -23.19099 -46.03052 12843 ft 403 kts 22°
2026-05-05 08:53 -23.16491 -46.02081 13477 ft 404 kts 18°
2026-05-05 08:53 -23.13799 -46.01104 14090 ft 410 kts 19°
2026-05-05 08:53 -23.11049 -46.00260 14623 ft 413 kts
2026-05-05 08:54 -23.08186 -45.99887 15216 ft 416 kts
2026-05-05 08:54 -23.05287 -45.99623 15818 ft 420 kts
2026-05-05 08:54 -23.02358 -45.99340 16411 ft 425 kts
2026-05-05 08:54 -22.99414 -45.99018 16994 ft 429 kts
2026-05-05 08:55 -22.96423 -45.98660 17571 ft 434 kts
2026-05-05 08:55 -22.93409 -45.98287 18158 ft 439 kts
2026-05-05 08:55 -22.90352 -45.97884 18671 ft 441 kts
2026-05-05 08:55 -22.87396 -45.96865 18995 ft 451 kts 28°
2026-05-05 08:56 -22.84850 -45.94962 19389 ft 452 kts 37°
2026-05-05 08:56 -22.82299 -45.92920 19756 ft 459 kts 36°
2026-05-05 08:56 -22.79692 -45.90908 20308 ft 461 kts 35°
2026-05-05 08:56 -22.77053 -45.88910 20842 ft 464 kts 34°
2026-05-05 08:57 -22.74387 -45.86906 21363 ft 468 kts 34°
2026-05-05 08:57 -22.71698 -45.84890 21832 ft 473 kts 34°
2026-05-05 08:57 -22.68978 -45.82852 22289 ft 477 kts 34°
2026-05-05 08:57 -22.66234 -45.80794 22777 ft 481 kts 34°
2026-05-05 08:58 -22.63460 -45.78714 23262 ft 485 kts 35°
2026-05-05 08:58 -22.60711 -45.76652 23724 ft 488 kts 34°
2026-05-05 08:58 -22.57909 -45.74549 24146 ft 491 kts 34°
2026-05-05 08:58 -22.55095 -45.72438 24542 ft 494 kts 34°
2026-05-05 08:59 -22.52259 -45.70313 24926 ft 497 kts 34°
2026-05-05 08:59 -22.49408 -45.68176 25318 ft 501 kts 34°
2026-05-05 08:59 -22.46529 -45.66021 25700 ft 504 kts 34°
2026-05-05 08:59 -22.43636 -45.63856 26077 ft 507 kts 34°
2026-05-05 09:00 -22.40719 -45.61675 26464 ft 510 kts 34°
2026-05-05 09:00 -22.37795 -45.59490 26822 ft 513 kts 34°
2026-05-05 09:00 -22.34848 -45.57287 27179 ft 516 kts 33°
2026-05-05 09:00 -22.31919 -45.55099 27526 ft 519 kts 33°
2026-05-05 09:01 -22.28934 -45.52871 27878 ft 522 kts 33°
2026-05-05 09:01 -22.25933 -45.50632 28230 ft 525 kts 33°
2026-05-05 09:01 -22.22912 -45.48379 28562 ft 527 kts 33°
2026-05-05 09:01 -22.19892 -45.46128 28924 ft 529 kts 33°
2026-05-05 09:02 -22.16852 -45.43864 29254 ft 531 kts 33°
2026-05-05 09:02 -22.13802 -45.41593 29534 ft 534 kts 33°
2026-05-05 09:02 -22.10736 -45.39311 29879 ft 535 kts 33°
2026-05-05 09:02 -22.07709 -45.37058 30326 ft 534 kts 33°
2026-05-05 09:03 -22.04652 -45.34784 30719 ft 532 kts 33°
2026-05-05 09:03 -22.01675 -45.32418 31084 ft 531 kts 36°
2026-05-05 09:03 -21.98775 -45.29983 31470 ft 530 kts 37°
2026-05-05 09:03 -21.95883 -45.27519 31822 ft 529 kts 37°
2026-05-05 09:04 -21.93001 -45.25055 32171 ft 529 kts 37°
2026-05-05 09:04 -21.90115 -45.22593 32447 ft 529 kts 37°
2026-05-05 09:04 -21.87220 -45.20135 32693 ft 530 kts 37°
2026-05-05 09:04 -21.84324 -45.17687 33012 ft 530 kts 36°
2026-05-05 09:05 -21.81422 -45.15240 33219 ft 532 kts 36°
2026-05-05 09:05 -21.75582 -45.10328 33248 ft 531 kts 36°
2026-05-05 09:06 -21.69827 -45.05488 33251 ft 526 kts 36°
2026-05-05 09:06 -21.64053 -45.00637 33263 ft 525 kts 36°
2026-05-05 09:07 -21.58441 -44.95926 33245 ft 526 kts 36°
2026-05-05 09:07 -21.52665 -44.91082 33259 ft 527 kts 36°
2026-05-05 09:08 -21.46868 -44.86227 33258 ft 529 kts 36°
2026-05-05 09:08 -21.41058 -44.81362 33246 ft 530 kts 36°
2026-05-05 09:09 -21.35227 -44.76489 33256 ft 531 kts 36°
2026-05-05 09:09 -21.29418 -44.71647 33253 ft 532 kts 36°
2026-05-05 09:10 -21.23567 -44.66774 33258 ft 531 kts 36°
2026-05-05 09:10 -21.17740 -44.61920 33261 ft 531 kts 36°
2026-05-05 09:11 -21.11905 -44.57057 33255 ft 530 kts 36°
2026-05-05 09:11 -21.06083 -44.52208 33270 ft 530 kts 36°
2026-05-05 09:12 -21.00268 -44.47370 33279 ft 529 kts 36°
2026-05-05 09:12 -20.94500 -44.42582 33254 ft 529 kts 36°
2026-05-05 09:13 -20.88673 -44.37761 33262 ft 529 kts 36°
2026-05-05 09:13 -20.82843 -44.32941 33274 ft 529 kts 35°
2026-05-05 09:14 -20.77027 -44.28135 33270 ft 529 kts 35°
2026-05-05 09:14 -20.71202 -44.23326 33268 ft 529 kts 35°
2026-05-05 09:15 -20.65377 -44.18519 33266 ft 529 kts 35°
2026-05-05 09:15 -20.59566 -44.13688 33271 ft 529 kts 36°
2026-05-05 09:16 -20.53784 -44.08819 33268 ft 529 kts 36°
2026-05-05 09:16 -20.48960 -44.04786 33252 ft 529 kts 35°
2026-05-05 09:17 -20.43127 -44.00012 33269 ft 528 kts 35°
2026-05-05 09:17 -20.37441 -43.95388 33269 ft 529 kts 35°
2026-05-05 09:18 -20.31591 -43.90618 33278 ft 528 kts 35°
2026-05-05 09:18 -20.25762 -43.85861 33259 ft 527 kts 35°
2026-05-05 09:19 -20.19967 -43.81135 33263 ft 527 kts 35°
2026-05-05 09:19 -20.14145 -43.76391 33271 ft 527 kts 35°
2026-05-05 09:20 -20.08325 -43.71655 33254 ft 527 kts 35°
2026-05-05 09:20 -20.02506 -43.66923 33255 ft 526 kts 34°
2026-05-05 09:21 -19.96685 -43.62195 33280 ft 525 kts 35°
2026-05-05 09:21 -19.90869 -43.57474 33234 ft 526 kts 34°
2026-05-05 09:22 -19.85092 -43.52785 33257 ft 525 kts 34°
2026-05-05 09:22 -19.79296 -43.48069 33264 ft 524 kts 34°
2026-05-05 09:23 -19.73488 -43.43349 33254 ft 525 kts 34°
2026-05-05 09:23 -19.67685 -43.38639 33251 ft 525 kts 34°
2026-05-05 09:24 -19.61881 -43.33932 33253 ft 525 kts 34°